CAPE
257 96 114 31 0 0 0 0 0 0 0 0 0 0 0 0 0 0 0 0 0 48 40 26 25 10 2 0 3 0 0 0 0 0 1 1 3 8 7 5 0 0 0
236 223 259 125 37 0 0 0 0 0 0 0 0 0 0 0 0 0 0 0 0 0 6 21 30 17 6 0 0 0 0 0 0 0 0 0 0 2 6 5 3 8 8
139 239 111 58 47 0 0 0 0 0 0 0 0 0 0 0 0 0 0 0 0 0 0 0 0 0 0 0 0 0 0 0 0 0 0 0 0 0 0 6 11 18 14
176 271 150 70 6 0 0 0 0 0 0 0 0 0 0 0 0 0 0 0 0 0 0 0 0 0 0 0 0 0 0 0 0 0 0 0 0 0 0 0 0 1 3
265 230 205 70 7 0 0 0 0 0 0 0 0 0 0 0 0 0 0 0 0 0 0 0 0 0 0 0 0 0 0 0 0 0 0 0 0 0 0 0 0 0 0
345 230 271 62 0 0 0 0 0 0 0 0 0 0 0 0 0 0 0 0 0 0 0 0 0 0 0 0 0 0 0 0 0 0 0 0 0 0 0 0 0 0 2
308 234 241 15 0 0 0 0 0 0 0 0 0 0 0 0 0 0 0 0 0 0 0 0 0 0 0 0 0 0 0 0 0 0 0 0 0 0 0 0 0 0 1
232 220 176 24 2 0 0 0 0 0 0 0 0 0 0 0 0 0 0 0 0 0 0 0 0 0 0 0 0 0 0 0 0 0 0 0 0 0 0 0 0 0 1
399 151 106 66 13 0 0 0 0 0 0 0 0 0 0 0 0 0 0 0 0 0 0 0 0 0 0 0 0 0 0 0 0 0 0 0 0 0 0 0 0 0 1
470 239 118 62 6 1 0 0 0 0 0 0 0 0 0 0 0 0 0 0 0 0 0 0 0 0 0 0 0 0 0 0 0 0 0 0 0 0 0 0 0 0 1
494 239 186 19 4 0 0 0 0 0 0 0 0 0 0 0 0 0 0 0 0 0 0 0 0 0 0 0 0 0 0 0 0 0 0 0 0 0 0 0 0 0 2
319 300 63 0 0 0 0 0 0 0 0 0 0 0 0 0 0 0 0 0 0 0 0 0 0 0 0 0 0 0 0 0 0 0 0 0 0 0 0 0 0 0 3
212 35 0 0 0 0 0 0 0 0 0 0 0 0 0 0 0 0 0 0 0 0 0 0 0 0 0 0 0 0 0 0 0 0 0 0 0 0 0 0 0 0 2
10 0 0 0 0 0 0 0 0 0 0 0 0 0 0 0 0 0 0 0 0 0 0 0 0 0 0 0 0 0 0 0 0 0 0 0 0 0 0 0 0 0 1
0 0 0 0 0 0 0 0 0 0 0 0 0 0 0 0 0 0 0 0 0 0 0 0 0 0 0 0 0 0 0 0 0 0 0 0 0 0 0 0 0 0 0
0 0 0 0 0 0 0 0 0 0 0 0 0 0 0 0 0 0 0 0 0 0 0 0 0 0 0 0 0 0 0 0 0 0 0 0 0 0 0 0 0 0 0
0 0 0 0 0 0 0 0 0 0 0 0 0 0 0 0 0 0 0 0 0 0 0 0 0 0 0 0 0 0 0 0 0 0 0 0 0 0 0 0 0 0 0
0 0 0 0 0 0 0 0 0 0 0 0 0 0 0 0 0 0 0 0 0 0 1 0 0 0 0 0 0 0 0 0 0 0 0 0 0 0 0 0 0 0 0
0 0 0 0 0 0 0 0 0 0 0 0 0 0 0 0 1 0 0 0 0 0 2 2 0 0 0 0 0 0 0 0 0 0 0 0 0 0 0 0 0 0 0
0 0 0 0 0 0 0 0 0 0 0 0 0 0 0 5 0 0 0 0 0 0 0 0 0 0 0 0 0 0 0 0 0 0 0 0 0 0 0 0 0 0 5
0 0 0 0 0 0 0 0 0 0 0 0 0 1 3 5 1 0 0 0 0 0 0 3 1 2 0 0 0 0 0 0 0 0 0 0 0 0 0 0 0 1 4
0 0 0 0 0 0 0 0 0 0 0 0 0 3 2 0 0 0 0 0 0 0 0 0 0 0 0 0 0 0 0 0 0 0 0 0 0 0 0 0 0 0 0
0 0 0 0 0 0 0 0 0 0 0 0 0 0 0 0 1 3 4 2 0 0 0 0 0 0 0 0 2 0 0 0 0 0 0 0 0 0 0 0 0 0 0
0 0 0 0 0 0 0 0 0 0 0 0 0 0 0 9 5 2 0 0 0 0 0 0 0 0 0 0 4 0 0 0 0 0 0 0 0 0 0 0 0 0 1
0 0 0 0 0 0 0 0 0 0 0 0 1 0 0 0 0 0 0 0 0 0 0 0 0 8 0 0 0 0 0 0 0 0 0 0 0 0 0 0 0 0 0
0 0 0 0 0 1 1 0 0 0 0 0 0 0 0 0 0 0 0 0 0 0 0 0 1 0 0 0 0 0 0 0 0 0 0 0 0 0 0 0 0 0 0
CIN
-38 -61 -50 -61 0 0 0 0 0 0 0 0 0 0 0 0 0 0 0 0 0 -1 -0 -0 -0 -0 -0 0 -0 0 0 0 0 0 -0 -0 -1 -0 -1 -1 -0 -0 -0
-22 -15 -4 -5 -15 0 0 0 0 0 0 0 0 0 0 0 0 0 0 0 0 0 -0 -0 -0 -0 -0 0 0 0 0 0 0 0 0 0 0 -1 -0 -0 -0 -1 -1
-23 -5 -12 -13 -4 0 0 0 0 0 0 0 0 0 0 0 0 0 0 0 0 0 0 0 0 0 0 0 0 0 0 0 0 0 0 0 0 -0 0 -4 -1 -0 0
-12 -5 -9 -4 -2 0 0 0 0 0 0 0 0 0 0 0 0 0 0 0 0 0 0 0 0 0 0 0 0 0 0 0 0 0 0 0 0 0 0 0 0 -1 -1
-5 -10 -6 -4 -3 0 0 0 0 0 0 0 0 0 0 0 0 0 0 0 0 0 0 0 0 0 0 0 0 0 0 0 0 0 0 0 0 0 0 0 -0 -1 -0
-2 -11 -6 -9 0 0 0 0 0 0 0 0 0 0 0 0 0 0 0 0 0 0 0 0 0 0 0 0 0 0 0 0 0 0 0 0 0 0 0 0 0 -0 -1
-4 -11 -7 -46 0 0 0 0 0 0 0 0 0 0 0 0 0 0 0 0 0 0 0 0 0 0 0 0 0 0 0 0 0 0 0 0 0 0 -0 0 0 0 -0
-11 -19 -18 -86 -46 0 0 0 0 0 0 0 0 0 0 0 0 0 0 0 0 0 0 0 0 0 0 0 0 0 0 0 0 0 0 0 0 0 0 0 -0 0 -1
-6 -46 -45 -44 -92 0 0 0 0 0 0 0 0 0 0 0 0 0 0 0 0 0 0 0 0 0 0 0 0 0 0 0 0 0 0 0 0 0 0 0 0 -1 -0
-3 -32 -26 -29 -55 -116 -64 0 0 0 0 0 0 0 0 0 0 0 0 0 0 0 0 0 0 0 0 0 0 0 0 0 0 0 0 0 0 0 0 0 0 -1 -0
-22 -57 -4 -51 -74 0 0 0 0 0 0 0 0 0 0 0 0 0 0 0 0 0 0 0 0 0 0 0 0 0 0 0 0 0 0 0 0 0 0 0 0 0 -1
-61 -51 -63 0 0 0 0 0 0 0 0 0 0 0 0 0 0 0 0 0 0 0 0 0 0 0 0 0 0 0 0 0 0 0 0 0 0 0 0 0 0 -0 -0
-114 -195 0 0 0 0 0 0 0 0 0 0 0 0 0 0 0 0 0 0 0 0 0 0 0 0 0 0 0 0 0 0 0 0 0 0 0 0 0 0 0 0 -1
-79 0 0 0 0 0 0 0 0 0 0 0 0 0 0 0 0 0 0 0 0 0 0 0 0 0 0 0 0 0 0 0 0 0 0 0 0 0 0 0 0 0 -0
0 0 0 0 0 0 0 0 0 0 0 0 0 0 0 0 0 0 0 0 0 0 0 0 0 0 0 0 0 0 0 0 0 0 0 0 0 0 0 0 0 0 0
0 0 0 0 0 0 0 0 0 0 0 0 0 0 0 0 0 -0 0 0 0 0 0 0 0 0 0 0 0 0 0 0 0 0 0 0 0 0 0 0 0 0 0
0 0 0 0 0 0 0 0 0 0 0 0 0 0 0 0 0 -1 0 0 0 0 0 0 0 0 0 0 0 0 0 0 0 0 0 0 0 0 0 0 0 0 0
0 0 0 0 0 0 0 0 0 0 0 0 0 0 0 0 0 -4 0 0 0 0 -2 0 0 0 0 0 0 0 0 0 0 0 0 0 0 0 0 0 0 0 0
0 0 0 0 0 0 0 0 0 0 0 -8 0 0 0 -3 -2 0 0 0 -1 -1 -5 -4 0 0 0 0 0 0 0 0 0 0 0 0 0 0 0 0 0 0 0
0 0 0 0 0 0 0 0 0 -0 -6 0 0 0 -2 -2 -4 0 0 -2 0 -0 0 0 0 0 0 0 0 0 0 0 0 0 0 0 0 0 0 0 0 0 -15
0 0 0 0 0 0 0 0 0 0 0 0 0 -3 -1 -2 -0 -2 -1 0 0 0 -0 -7 -11 -8 -2 0 0 0 0 0 0 0 0 0 0 0 0 0 0 -2 -6
0 0 0 0 0 0 0 0 0 0 0 0 -4 -9 -5 -2 0 0 0 0 0 0 0 0 0 0 0 0 0 0 0 0 0 0 0 0 0 0 0 0 -1 0 0
0 0 0 0 0 0 0 0 0 0 0 0 0 0 0 0 -1 -2 -6 -3 0 0 0 0 -12 0 0 0 -8 0 0 0 0 0 0 0 0 0 0 0 0 0 0
0 0 0 0 0 0 0 0 0 0 0 0 0 0 0 -8 -3 -5 -2 0 0 0 0 0 0 0 0 0 -31 0 0 0 0 0 0 0 0 0 0 0 0 0 -4
0 0 0 0 -1 0 0 0 0 0 0 0 -0 -0 0 0 0 0 0 0 0 0 0 0 0 -3 0 0 0 0 0 0 0 0 0 0 0 0 0 0 0 0 0
0 -0 -4 -1 -0 -13 -5 0 0 0 0 0 0 0 0 0 0 0 0 0 0 0 0 0 0 0 0 0 0 0 0 0 0 0 0 0 0 0 0 0 0 0 0
Wind_Speed
4 2 7 21 25 22 7 10 11 12 14 16 18 19 20 21 22 20 21 22 20 16 16 17 17 18 19 20 20 22 23 24 26 27 28 29 29 30 31 32 29 31 32
12 20 23 20 19 10 5 8 9 11 12 15 16 18 20 21 22 21 19 20 19 19 18 17 17 18 19 20 21 22 24 25 26 27 29 30 31 31 32 31 30 32 32
25 25 18 24 4 14 6 9 10 12 12 14 15 15 17 18 19 20 17 17 17 16 16 16 17 18 20 20 21 23 24 25 27 28 29 30 32 33 33 33 34 34 35
14 27 25 9 7 10 10 9 8 9 11 11 12 13 15 16 18 17 17 17 14 14 15 15 16 17 18 20 21 23 24 26 27 29 30 32 33 34 35 36 38 38 40
11 19 26 2 7 6 5 5 6 8 10 12 12 13 15 15 15 14 16 15 16 15 15 15 15 16 16 17 20 22 24 25 27 29 32 33 34 35 36 38 39 40 41
15 16 27 5 5 5 4 5 7 10 12 9 12 12 14 13 15 15 14 13 12 15 16 14 16 16 15 17 19 20 22 25 27 29 31 33 35 36 38 40 41 42 44
12 8 12 3 4 5 3 3 8 11 12 15 18 18 17 14 16 17 14 12 13 14 15 17 18 16 15 17 19 20 21 24 26 28 31 33 35 37 39 40 42 43 44
6 5 2 5 6 7 7 7 8 11 11 11 18 22 24 19 17 16 15 12 14 15 17 16 15 17 19 19 17 19 22 23 24 27 30 33 36 38 40 41 43 44 45
1 2 4 9 6 8 10 9 10 12 12 11 13 18 23 23 26 18 13 14 14 17 19 20 16 17 17 17 19 21 20 22 25 28 31 35 37 39 39 40 42 43 44
4 8 7 8 11 11 15 13 14 14 13 14 13 15 18 21 27 27 18 17 16 19 20 19 19 17 19 19 21 19 19 22 25 29 32 34 37 37 38 40 41 42 42
6 6 9 10 15 16 20 17 19 12 11 15 19 20 26 26 21 22 26 25 21 20 21 19 17 18 19 23 23 19 19 22 26 29 32 35 36 37 38 39 40 40 41
5 6 8 9 12 15 16 19 19 11 15 16 17 19 26 26 24 25 26 27 27 23 19 17 16 18 21 21 20 18 20 22 25 29 32 33 34 36 38 38 39 40 40
3 4 5 4 9 15 15 13 8 13 17 18 20 26 25 25 25 26 28 31 31 27 25 20 18 20 21 22 20 19 19 22 27 29 30 31 33 36 37 36 38 38 38
5 3 5 7 7 10 9 8 10 13 16 21 25 24 22 24 27 28 29 29 31 30 28 27 23 21 20 20 19 19 22 24 27 29 29 30 32 34 34 35 37 37 37
7 6 6 7 11 11 9 10 12 14 17 18 21 20 22 25 27 27 25 24 27 31 30 28 29 24 22 20 21 21 24 26 28 28 29 29 30 29 30 33 36 36 35
9 8 9 11 12 12 12 12 14 14 18 17 18 20 22 24 27 24 25 25 25 27 32 29 28 26 25 24 22 23 24 26 27 27 28 29 27 26 27 30 34 35 33
11 12 11 12 13 14 14 14 15 16 15 17 19 19 23 25 25 25 24 25 26 28 33 31 27 27 27 26 25 25 25 24 24 26 28 27 25 24 24 28 30 30 30
12 12 12 13 14 14 14 13 14 17 17 15 18 20 25 28 25 24 24 28 29 29 30 33 32 31 30 27 26 26 25 23 24 25 27 27 24 22 24 25 25 26 26
14 14 13 13 14 14 14 14 16 15 15 15 17 23 30 26 27 27 28 29 28 29 30 33 35 32 31 28 28 26 26 24 22 23 25 23 23 25 25 23 23 23 22
16 17 15 14 13 14 13 15 13 13 14 17 19 26 28 27 27 29 30 29 30 32 33 33 34 34 33 30 28 28 27 23 24 23 25 29 29 26 24 23 23 23 20
17 17 16 15 14 13 14 11 13 13 16 20 24 26 27 28 31 31 32 32 32 33 33 34 36 36 35 32 29 27 25 24 23 24 27 27 25 26 27 24 24 25 25
16 15 14 13 13 12 10 11 13 16 19 21 24 28 29 32 32 33 31 31 30 33 35 36 37 37 36 33 30 27 26 27 29 24 27 28 25 28 24 23 24 25 24
15 15 14 13 14 13 12 13 16 19 21 23 27 30 30 29 29 31 32 33 35 34 33 37 39 38 37 34 31 29 26 26 28 26 26 30 27 25 21 22 25 30 29
16 16 15 14 14 14 13 15 18 21 24 26 27 27 28 30 33 37 38 40 40 39 39 38 38 39 37 34 30 27 27 26 26 26 25 30 25 23 23 22 23 27 25
15 15 14 14 16 16 15 18 21 23 25 27 29 31 35 37 38 41 43 45 46 45 42 40 41 40 35 31 27 25 25 26 27 28 22 25 24 25 24 24 27 26 24
16 16 17 18 18 20 19 20 22 25 29 32 33 35 37 38 42 44 46 47 50 48 47 46 45 41 34 29 25 23 22 22 25 28 22 21 22 23 27 24 21 30 28
Wind_Direction
68 344 292 207 196 209 341 335 354 13 18 22 26 38 38 35 30 39 32 29 28 42 39 35 34 25 21 16 10 5 1 357 353 350 347 343 338 334 332 331 333 330 328
250 233 215 226 240 308 57 346 34 27 38 32 35 28 29 31 23 26 35 33 34 30 32 29 25 21 15 10 4 358 355 353 349 345 341 338 336 334 332 333 330 327 326
217 220 260 235 24 131 355 336 359 7 18 27 31 40 34 32 30 23 30 33 33 34 30 23 15 10 5 1 358 354 351 348 345 343 341 337 334 331 331 331 329 326 322
150 213 187 118 97 306 318 344 10 17 23 32 35 28 21 20 19 21 19 17 25 24 26 24 17 8 2 356 352 348 346 345 343 340 337 335 333 331 328 325 322 320 317
135 160 193 40 315 336 10 21 15 14 7 1 6 3 6 9 16 19 18 12 6 14 13 15 13 6 0 357 352 348 344 343 342 339 335 334 332 330 328 325 322 319 317
152 155 227 312 333 345 2 352 346 346 350 354 347 350 350 354 358 3 6 7 7 360 3 6 4 359 359 354 349 347 345 343 341 339 337 335 332 330 327 324 322 319 316
145 139 174 335 330 321 329 335 333 331 333 338 332 332 331 329 339 345 352 353 350 354 355 357 354 357 355 349 346 343 343 341 340 339 337 335 332 330 327 325 322 320 317
141 147 194 304 314 307 308 312 317 322 324 329 330 331 331 336 330 338 340 342 343 346 347 345 347 346 344 344 343 339 339 342 343 339 337 335 332 330 327 325 322 319 316
205 259 277 306 306 299 301 301 304 312 318 325 327 332 332 332 334 332 332 337 337 334 336 339 340 337 338 338 337 332 337 339 338 337 336 334 332 330 328 326 324 321 319
272 297 293 295 307 308 310 302 304 306 314 317 319 322 328 329 328 331 331 326 327 327 330 331 333 337 338 335 332 333 334 337 336 336 335 333 331 330 329 327 325 322 320
290 285 299 295 302 310 311 311 307 309 314 319 316 322 322 324 319 324 326 331 322 320 322 321 326 330 335 334 333 334 333 335 334 333 333 332 331 330 329 327 326 323 321
260 268 303 310 312 310 308 312 307 299 308 316 318 320 322 317 317 319 319 323 321 326 324 322 327 330 330 329 330 329 330 331 331 331 331 331 330 330 329 327 326 324 322
297 265 293 295 299 303 300 311 305 305 310 314 317 315 316 314 317 318 319 321 321 324 324 324 321 321 322 323 324 325 327 329 329 330 330 330 330 329 328 328 326 326 325
257 274 294 297 302 318 305 303 306 306 312 311 311 313 314 316 319 319 317 321 320 321 321 320 323 319 317 320 324 325 327 328 330 330 329 328 328 327 329 328 328 328 326
297 293 294 296 306 309 304 303 304 308 314 316 317 314 315 319 321 319 320 321 319 319 318 320 321 326 327 326 324 323 324 325 327 327 327 327 326 327 328 329 329 328 326
302 297 296 299 309 312 307 307 309 309 314 313 318 318 323 321 321 317 318 319 319 317 315 317 318 321 321 320 321 321 322 323 326 327 327 325 325 326 327 329 331 332 330
310 307 306 308 309 311 310 310 312 314 305 312 321 323 321 324 319 319 317 318 316 315 313 316 318 319 319 319 320 320 321 323 327 327 328 327 326 324 326 328 332 333 333
318 313 310 308 311 313 312 307 307 314 311 306 319 323 323 324 320 318 313 311 312 314 313 312 314 315 314 314 316 318 318 319 322 325 325 324 323 323 325 326 329 330 331
319 317 313 311 315 317 314 311 315 310 312 319 320 324 324 323 320 318 316 314 313 312 313 313 313 313 311 312 312 314 315 318 321 322 322 324 327 325 323 324 325 325 326
326 325 322 317 317 318 316 316 316 314 319 323 323 324 323 321 320 319 318 314 311 311 311 309 308 309 309 308 306 309 309 313 316 323 325 326 326 326 329 330 327 326 323
328 327 325 323 322 320 320 323 326 325 320 320 322 325 324 325 323 319 317 314 313 313 311 311 309 310 307 305 302 304 304 312 314 319 321 324 326 329 330 330 331 333 337
334 336 335 332 329 329 331 331 329 326 323 323 322 325 323 322 319 315 314 312 309 310 307 307 306 305 304 303 299 297 299 305 308 318 318 320 325 325 326 330 336 341 341
340 341 341 340 339 341 340 336 331 330 327 325 325 325 324 325 324 322 320 318 315 312 307 307 304 301 303 303 299 297 297 301 305 314 319 317 322 321 326 332 334 333 335
346 346 347 347 344 340 337 334 332 330 328 326 327 327 326 326 327 326 324 322 319 316 314 312 307 302 299 299 297 295 296 299 305 311 315 313 320 319 328 331 334 335 339
351 350 350 347 344 346 340 335 332 333 331 332 333 332 331 331 332 331 328 324 321 319 318 313 310 305 295 292 294 295 292 297 300 307 311 313 318 321 328 330 333 336 342
351 351 349 347 343 339 339 344 341 337 333 332 332 330 329 328 327 328 326 324 320 318 317 316 314 312 304 289 282 282 286 287 300 310 311 309 317 324 325 331 341 333 338